Location: Newark
(39.2833°N, 16.3333°E)
Time: 03:41:51
(UTC+00:00)

LightSail 2 - Pass Details

Date: 16 October 2019
Orbit: 700 x 727 km, 24.0° (Epoch: 17 November)

Event Time Altitude Azimuth Distance (km) Brightness Sun altitude
Rises 17:56:11 0° 239° (WSW) 3,087 9.3 -20.3°
Reaches altitude 10° 17:59:48 10° 214° (SW) 2,175 8.0 -21.0°
Maximum altitude 18:02:17 14° 185° (S) 1,942 7.4 -21.5°
Enters shadow 18:03:37 12° 168° (SSE) 2,014 7.3 -21.8°
